User: anonymous   Login
Location: Unspecified
(0.0000°N, 0.0000°E)
Time: 03:53:08
(UTC+00:00)
Language:

COSMOS 2463 - Orbit

View from above orbital plane
View from above orbital plane
View from above satellite
View from above satellite

Ground track
Ground track

The orbit data is extracted from the following two-line orbital elements,

1 36519U 10017A   18112.57836974 -.00000067 +00000-0 -91138-4 0  9996
2 36519 082.9566 276.9010 0037561 109.7208 250.8002 13.71422920399870
Epoch (UTC): 22 April 2018 13:52:51
Eccentricity: 0.0037561
inclination: 82.9566°
perigee height: 967 km
apogee height: 1022 km
right ascension of ascending node: 276.9010°
argument of perigee: 109.7208°
revolutions per day: 13.71422920
mean anomaly at epoch: 250.8002°
orbit number at epoch: 39987

The dashed part of the orbit path shows where the satellite is in the earth's shadow,  

DLR